Regional Weather Roundup
Issued by NWS Jackson, KY

Home | Current Version | Previous Version | Graphics & Text | Print | Product List | Glossary On
Versions: 1 2 3 4 5 6 7 8 9 10 11 12 13 14 15 16 17 18 19 20 21 22 23 24 25 26 27 28 29 30 31 32 33 34 35 36 37 38 39 40 41 42 43 44 45 46 47 48 49 50
000
ASUS43 KJKL 010910
RWRJKL

EAST KENTUCKY HOURLY WEATHER ROUNDUP
NATIONAL WEATHER SERVICE JACKSON KY
500 AM EDT WED OCT 01 2014

NOTE: "FAIR" INDICATES FEW OR NO CLOUDS BELOW 12,000 FEET WITH
NO SIGNIFICANT WEATHER AND/OR OBSTRUCTIONS TO VISIBILITY.

* THESE REPORTS ARE NOT UNDER NWS QUALITY CONTROL AND MAY NOT
  REPORT WEATHER SUCH AS PRECIPITATION AND FOG.

KYZ079-080-083-085-087-088-110-112-115-119-120-011000
...EASTERN KENTUCKY...

CITY           SKY/WX    TMP DP  RH WIND       PRES   REMARKS
JACKSON        MOCLDY    59  58  96 CALM      29.97S FOG
LONDON         CLEAR     55  53  93 CALM      29.97S FOG
SOMERSET*      CLEAR     54  54 100 CALM      29.98R
MONTICELLO*    PTCLDY    52  52 100 CALM      29.98R FOG
WILLIAMSBURG*  CLEAR     54  54 100 CALM      29.98R
MIDDLESBORO*   FOG       53  53 100 CALM      29.99S VSB 1
HARLAN APT*    CLOUDY    54  54 100 E5        29.99S VSB 1/4
BLACK MTN*       N/A     57  50  77 CALM        N/A
PIKEVILLE APT* CLEAR     57  57 100 CALM      29.97S FOG
BIG SANDY*     FOG       59  59  99 CALM      29.97S VSB 1
MOREHEAD APT*  CLOUDY    59  57  94 CALM      29.99S FOG
$$

KYZ035-036-041-042-044-050-067-078-099-011000
...CENTRAL KENTUCKY...

CITY           SKY/WX    TMP DP  RH WIND       PRES   REMARKS
MT STERLING*   CLOUDY    59  59 100 CALM      29.99S FOG
FLEMING/MASON* CLEAR     52  50  93 N5        29.99S
DANVILLE*      MOCLDY    55  55 100 CALM      29.99R FOG
RICHMOND*      CLOUDY    57  55  94 CALM      29.97R
LEXINGTON      CLEAR     57  54  89 NE6       29.97S
FRANKFORT      CLEAR     57  53  86 CALM      29.97S
$$

KYZ091>093-OHZ055-061-077-WVZ005-015-034-035-042-011000
...SOUTHERN OHIO/WEST VIRGINIA...

CITY           SKY/WX    TMP DP  RH WIND       PRES   REMARKS
COVINGTON      CLEAR     53  48  83 NE3       29.98S
COLUMBUS       MOCLDY    50  48  93 N3        29.99R
DAYTON         FOG       46  45  96 N5        30.01R VSB 1/4
WILMINGTON     CLEAR     44  43  96 NE6       29.99R FOG
HUNTINGTON     CLOUDY    60  56  86 N6        29.96S
CHARLESTON     CLOUDY    61  59  93 CALM      29.95S FOG
PINEVILLE*     PTCLDY    54  54 100 MISG      30.03S FOG
BECKLEY          N/A     54  51  90 CALM      29.99S
BLUEFIELD      CLEAR     59  50  72 W6        30.02R
$$

VAZ002-007-008-TNZ017-027-036-066-071-011000
...SOUTHWEST VIRGINIA/EAST TENNESSEE...

CITY           SKY/WX    TMP DP  RH WIND       PRES   REMARKS
WISE*          CLEAR     55  52  88 CALM      30.02S
JONESVILLE*    SUNNY     50  50 100 CALM      30.00S
ABINGDON*      CLEAR     54  53  96 E5        30.00S
BRISTOL        PTCLDY    52  50  93 CALM      29.98S FOG
KNOXVILLE      PTCLDY    57  56  96 CALM      29.95R
OAK RIDGE      FOG       57  56  96 CALM      29.97R VSB 1/4
CROSSVILLE     CLEAR     54  49  83 CALM      29.99S HAZE
NASHVILLE      CLEAR     59  55  87 CALM      29.93S
$$

...KEY TO REMARKS...
VSB - VISIBILITY IN MILES
WCI - WIND CHILL INDEX
HX  - HEAT INDEX

$$



USA.gov is the U.S. government's official web portal to all federal, state and local government web resources and services.